Helicity
212 236 247 252 238 219 195 163 148 106 89 71 74 82 85 85 86 91 97 95 104 100 100 87 76 76 83 87 79 71 62 73
224 247 255 251 231 211 192 172 176 136 121 109 70 74 63 69 82 98 108 113 116 112 113 112 105 88 75 62 51 46 51 46
252 264 262 249 228 196 177 158 133 106 75 69 51 61 62 72 75 74 92 88 90 83 91 90 93 78 71 67 42 13 15 34
286 279 263 221 208 184 155 132 105 94 72 61 57 53 59 78 78 66 65 59 54 56 62 61 65 66 66 58 51 53 31 25
287 259 236 223 187 139 126 94 86 74 79 75 89 92 100 76 58 57 52 59 60 69 72 71 68 65 55 52 49 45 39 37
250 243 239 205 164 132 100 88 87 89 92 100 92 90 61 47 40 34 32 38 43 57 66 67 71 67 64 53 39 34 52 75
242 244 212 196 147 124 111 100 96 81 81 82 76 60 39 31 31 21 34 33 43 52 65 64 73 79 86 83 72 73 73 72
226 213 199 188 161 135 102 92 88 75 67 65 59 50 30 29 38 41 37 48 58 50 54 57 65 73 82 90 98 64 70 86
188 201 193 176 140 117 103 98 95 82 84 79 62 52 43 39 45 42 41 50 37 44 63 51 54 65 72 87 86 89 85 80
186 188 180 163 135 123 113 112 107 99 87 74 60 46 42 40 35 34 50 45 56 65 43 47 56 69 65 73 87 86 100 72
170 182 183 162 137 122 125 117 99 86 80 67 55 45 42 37 30 43 49 52 50 54 40 49 64 67 65 74 80 66 83 82
193 215 192 178 144 141 140 108 83 85 75 65 57 49 39 33 41 55 52 39 47 45 34 48 67 56 70 74 74 57 74 72
205 246 234 190 167 150 126 97 89 82 69 63 56 48 42 41 54 54 42 39 36 41 25 37 58 62 54 69 63 53 56 59
267 272 271 269 205 171 128 101 95 85 74 67 58 51 44 47 52 53 32 36 34 37 33 32 48 40 52 59 51 47 50 56
287 286 293 247 199 155 117 104 104 90 77 65 60 52 48 52 47 42 41 38 37 40 33 29 36 32 44 49 37 40 49 52
297 318 277 217 168 136 109 114 108 86 73 67 69 59 57 55 50 39 41 39 38 35 33 30 24 28 51 35 31 26 32 40
310 327 284 218 160 137 122 121 107 82 79 76 68 61 58 55 47 45 47 46 44 40 41 42 19 28 64 41 33 27 24 27
354 307 243 188 159 135 134 117 94 85 80 72 64 61 53 53 55 61 61 58 53 53 59 45 37 30 67 39 43 32 25 31
328 268 210 172 148 141 113 101 98 86 77 70 66 60 59 61 63 65 60 52 44 47 59 34 41 37 67 48 47 18 28 29
Wind_Speed
22 27 32 38 42 46 49 52 58 58 58 57 56 60 62 63 64 67 69 70 73 73 72 75 76 79 80 83 86 85 86 88
21 27 32 37 43 47 51 54 59 60 61 64 61 68 66 66 66 67 70 72 75 74 75 77 78 80 83 84 87 89 90 89
21 26 32 38 43 47 50 54 57 60 60 62 61 65 64 65 69 69 72 73 74 74 76 78 80 82 82 84 86 90 89 86
20 25 31 36 41 46 49 53 55 59 62 63 64 63 65 69 72 71 74 73 73 73 74 76 78 79 82 84 85 87 94 88
19 22 27 34 38 42 47 51 55 58 63 65 69 71 74 73 72 73 73 72 71 72 74 76 77 78 80 82 83 86 87 93
18 20 25 31 37 41 46 50 56 60 63 66 69 71 72 72 72 74 71 70 69 70 72 75 76 76 79 82 85 84 85 87
16 19 24 30 36 41 46 51 56 59 63 66 69 72 74 74 74 74 73 72 70 71 75 75 76 77 78 79 81 78 84 86
19 21 24 30 37 41 45 50 55 59 61 66 69 71 71 72 72 73 75 72 72 73 76 75 73 74 75 75 71 81 81 82
19 21 25 31 35 38 42 48 54 58 63 67 68 70 69 68 69 70 69 70 70 72 73 72 72 73 74 72 73 76 79 78
19 21 24 27 30 35 41 49 54 59 63 66 67 68 68 68 67 67 69 69 71 71 71 73 72 73 78 74 70 73 76 79
20 21 24 24 28 33 40 48 53 57 62 65 67 68 66 66 67 69 70 71 70 71 72 73 72 74 77 75 72 69 75 78
21 21 21 22 28 34 40 47 52 59 63 65 66 65 65 66 68 69 70 71 72 71 71 74 72 75 77 77 74 72 78 84
21 20 20 24 30 35 40 46 53 60 63 64 64 64 65 67 68 69 70 71 71 71 72 75 75 73 78 79 78 78 79 85
19 18 21 25 31 36 41 46 53 58 62 63 63 64 65 67 68 69 70 71 72 72 74 76 77 76 78 77 83 83 82 82
19 18 20 25 31 35 41 47 52 58 60 61 62 64 65 66 67 69 70 71 72 74 75 76 77 79 77 83 87 88 89 82
18 17 20 24 28 35 40 47 53 55 57 59 61 63 63 65 68 68 69 71 73 75 77 77 77 80 76 87 90 92 92 85
15 15 17 22 29 35 41 48 52 53 55 58 59 61 64 66 68 69 71 72 74 75 76 77 80 79 80 89 92 94 88 87
11 13 17 23 29 35 43 46 49 52 53 56 59 61 64 65 66 68 70 71 72 73 74 75 81 81 84 91 94 92 85 85
9 12 17 23 29 37 40 44 48 49 52 55 58 60 63 63 65 66 67 70 74 76 77 77 82 82 86 92 96 90 84 86
Wind_Direction
348 348 347 346 345 344 344 345 344 345 346 346 347 345 344 344 343 342 341 338 335 332 329 327 326 322 320 318 315 314 310 307
342 342 343 343 343 343 344 344 344 345 345 344 342 340 341 342 343 343 340 337 335 332 329 327 326 322 320 318 316 313 311 310
327 334 337 339 341 342 343 345 345 346 345 345 344 342 341 341 339 338 338 336 334 332 330 328 326 324 322 321 319 315 312 311
317 326 332 337 339 341 342 344 345 346 345 344 345 345 342 339 338 338 337 336 335 333 331 329 328 326 324 323 321 318 313 311
311 322 329 333 337 342 343 344 345 346 346 344 343 341 338 338 338 337 337 337 336 335 333 332 330 328 326 325 324 320 316 310
300 314 326 333 337 339 341 343 344 345 345 345 342 340 339 338 338 336 337 338 338 338 337 334 332 330 328 326 324 322 319 312
295 310 321 328 334 337 340 341 342 344 344 344 342 340 338 337 336 335 336 336 337 338 337 335 334 332 330 329 327 327 322 316
286 298 312 323 330 334 338 341 342 344 344 343 342 341 340 339 339 338 337 337 338 337 338 337 336 335 333 331 330 327 326 322
282 296 311 321 330 337 341 342 343 344 344 343 343 342 341 341 341 340 339 339 339 339 340 339 337 335 332 333 330 329 330 326
284 299 313 325 335 340 342 343 343 344 344 343 342 342 342 341 341 340 339 339 339 341 340 339 338 335 330 333 333 331 333 328
287 299 312 329 338 342 344 344 344 344 343 343 342 342 343 342 340 339 340 339 341 340 339 339 340 336 332 333 335 335 334 331
287 299 314 330 337 342 343 343 343 341 341 342 343 343 343 341 340 341 340 340 340 340 339 338 340 337 334 334 335 336 334 329
289 300 314 325 333 339 341 342 342 340 340 342 343 343 342 341 341 342 341 340 341 339 336 335 337 340 335 334 333 334 334 331
292 300 311 323 332 336 338 341 341 341 341 342 343 343 342 342 343 343 342 340 339 339 336 333 334 337 337 337 333 332 332 332
285 296 311 322 330 335 337 339 342 342 342 342 342 342 343 344 344 343 342 341 339 337 336 333 333 334 336 334 332 330 328 332
278 294 310 322 330 335 338 340 342 343 342 342 343 344 346 346 345 345 345 342 340 336 334 333 333 332 335 333 330 329 326 330
277 297 316 324 330 335 338 340 342 343 343 343 345 346 346 346 346 346 345 342 340 338 338 336 334 334 334 331 329 327 330 328
280 306 322 329 335 339 339 341 343 343 345 346 347 347 347 348 348 348 348 346 346 345 343 341 338 336 335 331 329 329 331 331
298 321 332 339 342 341 342 343 344 346 347 347 349 349 349 350 351 352 352 348 344 343 342 341 338 336 336 332 328 329 331 331